COSMOS 1275 DEB, 42148

Orbit data source: Space-Track

COSMOS 1275 DEB, 42148 is space debris in LEO originally from a launch on Thu, 04 Jun 1981 UTC launched from the Plesetsk Missile And Space Complex (PKMTR). Debris objects in space refer to the collection of defunct objects orbiting the Earth. Examples of debris include non-operational satellites, rocket bodies, and fragments generated from explosions, collisions, or faulty payload assembly.

Loading next visibility...
Identifier
42148, 1981-053RL
Orbit
LEO
Country
Flag of CISCIS
Related business
Manufacturer
Unknown
Mission
Spacecraft
Bus & Motor
Unknown
Mass
Unknown
Launch date (UTC)
1981-06-04 (45 years ago)
Launch vehicle
Unknown
Launch site
Plesetsk Missile And Space Complex (PKMTR)
Object type
Payload
Rocket body
Debris
Shape & HBR
Unknown shape, 0.1 m
Radar Cross Section
Small (<0.1 m²)

Expand to show TLE details & history
Last TLE update: 13 hours ago

TLE from 13 hours ago
0 COSMOS 1275 DEB
1 42148U 81053RL  26037.12479849  .00001531  00000-0  13001-2 0  9995
2 42148  83.0950 292.8581 0075722 188.4640 171.5252 13.85492876615564
Epoch: 2026-02-06T02:59Z
TLE epoch observation values (Epoch: 2026-02-06T02:59:42.589Z)
Latitude
0.00001°
Longitude
111.66348°
Altitude
1,002.249 km
Speed
7.323 km/s
True Right ascension
19h 31m 25s
True Declination
0° 00' 00"
Sunlit
Object was in daylight at epoch
Visualization orbit readout
Latitude
Unknown
Longitude
Unknown
Altitude
Unknown
Speed
Unknown
Apparent Right ascension
Unknown
Apparent Declination
Unknown
Sunlit
N/A
Visualization observer readout
Local Sidereal Time
18:02:44
Azimuth
Unknown
Elevation
Unknown
Doppler factor
Unknown
Orbital elements
Apogee altitude
997.023 km
Perigee altitude
886.17 km
Semi-major axis
7,319.734 km
Eccentricity
0.00757
Inclination
83.095°
RAAN
292.8581°
Arg. of periapsis
188.464°
True anomaly
171.65189°
Mean anomaly
171.5252°
Eccentric anomaly
171.58866°
Mean motion
3.46577 °/min
Orbital period
103.87 mins
BSTAR
0.0013001
Loading maneuver chart data...
Computing Atmospheric mass density...
Loading historical data...
Loading historical data...
Loading historical data...
Loading historical data...
Loading historical data...
Loading historical data...
Loading historical data...

Documentation

Showing up to 5 results
|